Home   Weather   Leeuwarden   Past weeks
Flag for Netherlands

Past Weather in Leeuwarden, Friesland, Netherlands — Yesterday and Last 2 Weeks

Now
59 °F

High level clouds.


Feels Like: 59 °F
Forecast: 70 / 51 °F
Wind: 2 mph from Southeast

Location: Leeuwarden Airport

Current Time: Aug 21, 2019 at 11:18:07 pm

Latest Report: Aug 21, 2019 at 10:25 pm


Visibility: N/A

Pressure: 30.30 "Hg

Humidity: 82%

Dew Point: 54 °F

Location of LeeuwardenLocation

Past Weather in Leeuwarden — Graph

°F

Leeuwarden Temperature Yesterday

Maximum temperature yesterday: 66 °F (at 11:55 am)
Minimum temperature yesterday: 54 °F (at 6:25 am)
Average temperature yesterday: 61 °F

High & Low Weather Summary for the Past Weeks

 TemperatureHumidityPressure
High72 °F (Aug 9, 7:29 pm)100% (Aug 8, 11:25 pm)30.33 "Hg (Aug 8, 11:25 pm)
Low50 °F (Aug 14, 1:25 am)49% (Aug 21, 12:55 pm)29.59 "Hg (Aug 10, 2:25 am)
Average63 °F82%29.84 "Hg
* Reported Aug 6 9:25 pm — Aug 21 9:55 pm, Leeuwarden. Weather by CustomWeather, © 2019

Note: Actual official high and low records may vary slightly from our data, if they occured in-between our weather recording intervals... More about our weather records

Advertising

Leeuwarden Weather History for the Previous 24 Hours

Scroll right to see more
 ConditionsComfort  
Time TempWeatherWind HumidityBarometerVisibility
9:55 pm
Wed, Aug 21
59 °FCool.1 mph82%30.30 "HgN/A
9:25 pm59 °FPassing clouds.1 mph82%30.30 "HgN/A
8:55 pm61 °FCool.1 mph77%30.30 "HgN/A
8:25 pm64 °FMild.3 mph68%30.30 "HgN/A
7:55 pm66 °FMild.5 mph64%30.30 "HgN/A
7:25 pm66 °FMild.7 mph60%30.30 "HgN/A
6:55 pm68 °FBroken clouds.5 mph60%30.30 "HgN/A
6:25 pm68 °FMild.7 mph56%30.33 "HgN/A
5:55 pm70 °FMostly cloudy.8 mph57%30.33 "HgN/A
5:25 pm70 °FOvercast.8 mph53%30.33 "HgN/A
4:55 pm70 °FOvercast.8 mph50%30.33 "HgN/A
4:25 pm68 °FHigh level clouds.9 mph53%30.33 "HgN/A
4:19 pm68 °FHigh level clouds.8 mph56%30.33 "HgN/A
3:25 pm66 °FPartly sunny.7 mph68%30.33 "HgN/A
2:55 pm68 °FOvercast.10 mph60%30.33 "HgN/A
2:25 pm68 °FHigh level clouds.9 mph53%30.33 "HgN/A
1:55 pm70 °FMild.9 mph50%30.33 "HgN/A
1:25 pm68 °FMild.13 mph49%30.33 "HgN/A
12:55 pm68 °FMild.12 mph49%30.33 "HgN/A
12:25 pm68 °FMild.12 mph56%30.33 "HgN/A
12:05 pm68 °FBroken clouds.9 mph53%30.33 "HgN/A
11:55 am68 °FMild.10 mph60%30.33 "HgN/A
11:25 am64 °FMild.10 mph68%30.33 "HgN/A
11:05 am64 °FPartly sunny.9 mph73%30.33 "HgN/A
10:25 am64 °FMild.10 mph78%30.33 "HgN/A
9:55 am63 °FMild.8 mph88%30.33 "HgN/A
9:25 am61 °FOvercast.7 mph88%30.33 "HgN/A
8:55 am59 °FMostly cloudy.6 mph88%30.33 "HgN/A
8:25 am59 °FOvercast.7 mph88%30.33 "HgN/A
7:33 am54 °FFog.6 mph100%30.30 "Hg6 mi
6:55 am54 °FFog.6 mph94%30.30 "Hg5 mi
6:25 am52 °FFog.6 mph100%30.30 "Hg6 mi
5:55 am52 °FCool.7 mph100%30.30 "HgN/A
5:25 am52 °FPassing clouds.6 mph100%30.30 "HgN/A
4:55 am52 °FOvercast.6 mph100%30.30 "HgN/A
4:25 am52 °FOvercast.5 mph94%30.30 "HgN/A
3:55 am52 °FPassing clouds.5 mph100%30.30 "HgN/A
3:25 am52 °FCool.5 mph94%30.27 "HgN/A
2:55 am52 °FCool.3 mph94%30.27 "HgN/A
2:25 am54 °FCool.6 mph88%30.27 "HgN/A
1:55 am54 °FCool.3 mph88%30.27 "HgN/A
1:25 am54 °FCool.5 mph88%30.27 "HgN/A
12:55 am54 °FCool.3 mph88%30.27 "HgN/A
12:25 am54 °FCool.3 mph88%30.27 "HgN/A
11:55 pm
Tue, Aug 20
54 °FCool.5 mph88%30.27 "HgN/A
11:25 pm54 °FCool.5 mph94%30.27 "HgN/A
Weather by CustomWeather, © 2019

See weather overview